Regional Weather Roundup
Issued by NWS

Home | Current Version | Previous Version | Graphics & Text | Print | Product List | Glossary On
Versions: 1 2 3 4 5 6 7 8 9 10 11 12 13 14 15 16 17 18 19 20 21 22 23 24 25 26 27 28 29 30 31 32 33 34 35 36 37 38 39 40 41 42 43 44 45 46 47 48 49 50
000
ASUS43 KDMX 261703
RWRIA

WEATHER ROUNDUP FOR IOWA
NATIONAL WEATHER SERVICE DES MOINES IA
1200 PM CDT FRI AUG 26 2016

NOTE: "FAIR" INDICATES FEW OR NO CLOUDS BELOW 12,000 FEET WITH NO
SIGNIFICANT WEATHER AND/OR OBSTRUCTIONS TO VISIBILITY.

* - THESE STATIONS ARE NOT NWS STATIONS...THUS NOT UNDER NWS
QUALITY CONTROL.  THEY ALSO DO NOT REPORT WEATHER SUCH
AS PRECIPITATION OR FOG.

IAZ001>003-012>014-020>022-031>034-043>046-261800-
   NORTHWEST IOWA

CITY           SKY/WX    TMP DP  RH WIND       PRES   REMARKS
CARROLL *      MOSUNNY   70  63  78 E8        30.16R
CHEROKEE *     SUNNY     68  61  79 SE6       30.17S
DENISON *      CLOUDY    68  61  77 E10       30.13S HAZE
LE MARS *      CLOUDY    70  59  68 SE7       30.17F
ORANGE CITY *  CLOUDY    68  61  77 E6        30.17F
SHELDON *      SUNNY     66  59  77 SE8       30.16F
SIOUX CITY     SUNNY     70  60  70 E3        30.15F
SPENCER        SUNNY     66  56  70 E10       30.18F
STORM LAKE *   SUNNY     66  61  82 E8        30.17F
$$

IAZ055>058-069>071-079>083-090>094-261800-
   SOUTHWEST IOWA

CITY           SKY/WX    TMP DP  RH WIND       PRES   REMARKS
ATLANTIC *     CLOUDY    66  63  88 E8        30.14F
AUDUBON *      CLOUDY    70  63  78 SE10      30.17S
CLARINDA *       N/A     70  61  73 MISG      30.13S
COUNCIL BLFS * PTSUNNY   66  61  82 E9        30.12F
CRESTON *      MOSUNNY   68  59  73 E12       30.15F
HARLAN  *      CLOUDY    68  63  83 SE13      30.17F
LAMONI         CLOUDY    72  64  76 E9        30.13F
RED OAK *      PTSUNNY   70  61  73 E10G16    30.11F
SHENANDOAH *   CLOUDY    68 -40   1 E8        30.12S
$$

IAZ047>049-059>061-072>074-084-261800-
   CENTRAL IOWA

CITY           SKY/WX    TMP DP  RH WIND       PRES   REMARKS
AMES           CLOUDY    69  63  81 MISG      30.16S
ANKENY *         N/A    N/A N/A N/A MISG        N/A
BOONE *        MOSUNNY   70  61  73 SE10      30.16R
CHARITON *       N/A     72  64  78 MISG      30.14F
DES MOINES     CLOUDY    70  63  78 S6        30.16R
GRINNELL*      MOSUNNY   69  62  78 E10       30.16F
KNOXVILLE *    PTSUNNY   72  63  73 SE8G15    30.13F
MARSHALLTOWN   CLOUDY    67  62  84 SE7       30.16F
NEWTON *       MOSUNNY   70  64  83 E10       30.14F
PERRY *        PTSUNNY   69  65  85 SE14      30.17R
$$

IAZ004>006-015-016-023>025-035-036-261800-
   NORTH CENTRAL IOWA

CITY           SKY/WX    TMP DP  RH WIND       PRES   REMARKS
ALGONA *       MOSUNNY   68  57  68 NE6       30.18F
ESTHERVILLE    SUNNY     64  57  78 E8        30.19F
FORT DODGE *   CLOUDY    68  61  77 E9        30.17F
MASON CITY     MOSUNNY   66  57  72 E6        30.20F
FOREST CITY *    N/A    N/A N/A N/A MISG        N/A
WEBSTER CITY * MOSUNNY   70  63  78 E9        30.15S
IOWA FALLS *     N/A     69  58  69 E8        30.18F
$$

IAZ007>011-017>019-026>030-037>042-050>054-066-261800-
   NORTHEAST IOWA

CITY           SKY/WX    TMP DP  RH WIND       PRES   REMARKS
CEDAR RAPIDS   CLOUDY    71  63  75 SE9       30.17S
CHARLES CITY * SUNNY     68  59  73 E6        30.19F
CLINTON *      CLOUDY    73  63  70 E9        30.18S
DECORAH *      MOSUNNY   66  57  72 VRB5      30.18F
DUBUQUE        CLOUDY    70  60  70 N5        30.19F
MONTICELLO *   SUNNY     72  61  68 CALM      30.18F
OELWEIN *      SUNNY     66  59  77 NE7       30.19F
WATERLOO       SUNNY     69  57  65 NE8       30.17S
$$

IAZ064-065-067-068-078-261800-
   EAST CENTRAL IOWA

CITY           SKY/WX    TMP DP  RH WIND       PRES   REMARKS
DAVENPORT      CLOUDY    74  63  68 E10       30.18S
IOWA CITY      MOSUNNY   73  61  65 E8        30.18S
MT. PLEASANT * CLOUDY    78  66  67 E9        30.15F
MUSCATINE *    MOSUNNY   75  61  60 E12       30.17S
QUAD CITIES    CLOUDY    74  61  63 E10       30.18R
$$

IAZ062-063-075>077-085>089-095>099-261800-
   SOUTHEAST IOWA

CITY           SKY/WX    TMP DP  RH WIND       PRES   REMARKS
BURLINGTON     PTSUNNY   74  67  78 E10       30.14F
FAIRFIELD *    PTSUNNY   73  64  73 E8        30.15F
FORT MADISON * CLOUDY    75  66  73 E8        30.15F
KEOKUK *       CLOUDY    73  66  78 E10       30.14S
OSKALOOSA *      N/A     72  64  75 E10       30.14F
CENTERVILLE *    N/A     75  64  69 E9        30.16F
OTTUMWA        PTSUNNY   73  62  68 E13       30.14F
WASHINGTON *   CLOUDY    73  64  73 E9        30.17F
$$

ABBREVIATIONS USED IN REMARKS
   TC - TEMPERATURES IN CELSIUS
  WCI - WIND CHILL INDEX
   HX - HEAT INDEX
  VSB - VISIBILITY
$$





USA.gov is the U.S. government's official web portal to all federal, state and local government web resources and services.